| time (UTC) | temp C | wind direction | speed KPH | gust KPH | rain 1hr cm | rain 24hr cm | rain mn cm | humidity % | barometer mb |
| 20260904042325 | 13 | 137 | 0.0 | 1.6 | 0.10 | 2.92 | 2.92 | 91 | 1004.3 |
| 20260904041825 | 13 | 180 | 0.0 | 1.6 | 0.05 | 2.87 | 2.87 | 91 | 1004.3 |
| 20260904041326 | 13 | 120 | 0.0 | 6.4 | 0.05 | 2.84 | 2.84 | 91 | 1004.2 |
| 20260904040825 | 13 | 74 | 0.0 | 6.4 | 0.08 | 2.84 | 2.84 | 91 | 1004.2 |
| 20260904040325 | 13 | 163 | 0.0 | 6.4 | 0.08 | 2.84 | 2.84 | 91 | 1004.2 |
| 20260904035826 | 14 | 124 | 0.0 | 4.8 | 0.13 | 2.84 | 2.84 | 91 | 1004.1 |
| 20260904035325 | 14 | 236 | 0.0 | 6.4 | 0.13 | 2.84 | 2.84 | 91 | 1004.1 |
| 20260904034825 | 14 | 204 | 0.0 | 6.4 | 0.18 | 2.82 | 2.82 | 91 | 1004.2 |
| 20260904033825 | 14 | 103 | 3.2 | 4.8 | 0.18 | 2.82 | 2.82 | 91 | 1004.0 |
| 20260904033325 | 14 | 84 | 0.0 | 4.8 | 0.18 | 2.82 | 2.82 | 91 | 1004.0 |
| 20260904032825 | 14 | 152 | 1.6 | 4.8 | 0.18 | 2.82 | 2.82 | 91 | 1003.9 |
| 20260904032325 | 14 | 88 | 0.0 | 4.8 | 0.18 | 2.82 | 2.82 | 91 | 1003.8 |
| 20260904031825 | 14 | 176 | 0.0 | 8.0 | 0.23 | 2.79 | 2.79 | 90 | 1003.9 |
| 20260904031326 | 14 | 93 | 0.0 | 8.0 | 0.23 | 2.79 | 2.79 | 90 | 1003.9 |
| 20260904030825 | 14 | 85 | 0.0 | 8.0 | 0.20 | 2.79 | 2.79 | 90 | 1003.8 |
| 20260904030325 | 14 | 155 | 3.2 | 6.4 | 0.20 | 2.77 | 2.77 | 90 | 1003.8 |
| 20260904025825 | 14 | 86 | 1.6 | 6.4 | 0.15 | 2.74 | 2.74 | 90 | 1003.8 |
| 20260904025325 | 14 | 68 | 0.0 | 9.7 | 0.15 | 2.72 | 2.74 | 90 | 1003.9 |
| 20260904024825 | 14 | 95 | 1.6 | 9.7 | 0.08 | 2.67 | 2.67 | 90 | 1003.9 |
| 20260904024326 | 14 | 149 | 0.0 | 9.7 | 0.08 | 2.64 | 2.64 | 90 | 1003.8 |
| 20260904023825 | 14 | 110 | 3.2 | 4.8 | 0.08 | 2.64 | 2.64 | 90 | 1003.8 |
| 20260904023325 | 15 | 102 | 0.0 | 14.5 | 0.08 | 2.64 | 2.64 | 90 | 1003.8 |
| 20260904022825 | 15 | 88 | 3.2 | 14.5 | 0.05 | 2.64 | 2.64 | 90 | 1003.8 |
| 20260904022325 | 15 | 161 | 3.2 | 14.5 | 0.05 | 2.64 | 2.64 | 90 | 1003.8 |
| 20260904021825 | 15 | 161 | 6.4 | 12.9 | 0.00 | 2.59 | 2.62 | 90 | 1003.9 |
| 20260904021326 | 15 | 197 | 3.2 | 9.7 | 0.00 | 2.57 | 2.59 | 90 | 1003.9 |
| 20260904020825 | 15 | 85 | 3.2 | 6.4 | 0.00 | 2.57 | 2.57 | 90 | 1003.8 |
| 20260904020325 | 15 | 113 | 3.2 | 6.4 | 0.00 | 2.57 | 2.57 | 90 | 1003.8 |
| 20260904015825 | 15 | 85 | 1.6 | 6.4 | 0.00 | 2.57 | 2.57 | 90 | 1003.7 |
| 20260904015325 | 15 | 128 | 1.6 | 8.0 | 0.00 | 2.57 | 2.57 | 90 | 1003.8 |
| 20260904014825 | 15 | 92 | 3.2 | 8.0 | 0.03 | 2.57 | 2.57 | 90 | 1003.7 |
| 20260904014326 | 15 | 79 | 3.2 | 8.0 | 0.03 | 2.57 | 2.57 | 90 | 1003.7 |
| 20260904013825 | 15 | 133 | 3.2 | 6.4 | 0.03 | 2.57 | 2.57 | 90 | 1003.8 |
| 20260904013325 | 15 | 78 | 3.2 | 12.9 | 0.03 | 2.57 | 2.57 | 90 | 1003.8 |
| 20260904012825 | 15 | 137 | 1.6 | 12.9 | 0.03 | 2.57 | 2.57 | 90 | 1003.7 |
| 20260904012325 | 15 | 179 | 3.2 | 12.9 | 0.03 | 2.57 | 2.57 | 90 | 1003.8 |
| 20260904011825 | 15 | 148 | 4.8 | 9.7 | 0.03 | 2.57 | 2.57 | 90 | 1003.8 |
| 20260904011326 | 15 | 138 | 3.2 | 9.7 | 0.03 | 2.57 | 2.57 | 90 | 1003.8 |
| 20260904010825 | 15 | 172 | 6.4 | 9.7 | 0.03 | 2.57 | 2.57 | 90 | 1003.8 |
| 20260904010325 | 15 | 163 | 4.8 | 16.1 | 0.03 | 2.57 | 2.57 | 90 | 1003.8 |
| 20260904005825 | 15 | 149 | 3.2 | 16.1 | 0.03 | 2.57 | 2.57 | 90 | 1003.8 |
| 20260904005325 | 15 | 226 | 3.2 | 16.1 | 0.03 | 2.57 | 2.57 | 90 | 1003.8 |
| 20260904004825 | 15 | 99 | 6.4 | 12.9 | 0.00 | 2.57 | 2.57 | 90 | 1003.8 |
| 20260904004326 | 15 | 170 | 3.2 | 19.3 | 0.00 | 2.54 | 2.54 | 90 | 1003.8 |
| 20260904003825 | 15 | 163 | 4.8 | 19.3 | 0.05 | 2.54 | 2.54 | 90 | 1003.8 |
| 20260904003325 | 15 | 163 | 4.8 | 19.3 | 0.05 | 2.54 | 2.54 | 90 | 1003.9 |
| 20260904002825 | 15 | 180 | 8.0 | 16.1 | 0.10 | 2.54 | 2.54 | 90 | 1003.9 |
| 20260904002325 | 15 | 93 | 3.2 | 16.1 | 0.10 | 2.54 | 2.54 | 90 | 1003.9 |
| 20260904001825 | 15 | 197 | 6.4 | 16.1 | 0.13 | 2.54 | 2.54 | 90 | 1003.8 |
| 20260904001326 | 15 | 113 | 6.4 | 17.7 | 0.13 | 2.54 | 2.54 | 90 | 1003.8 |
| 20260904000825 | 15 | 75 | 1.6 | 17.7 | 0.15 | 2.54 | 2.54 | 90 | 1003.8 |
| 20260904000325 | 15 | 182 | 6.4 | 17.7 | 0.15 | 2.54 | 2.54 | 90 | 1003.8 |
| 20260903235325 | 15 | 170 | 3.2 | 9.7 | 0.20 | 2.54 | 2.54 | 90 | 1003.9 |
| 20260903234825 | 15 | 182 | 3.2 | 16.1 | 0.20 | 2.54 | 2.54 | 90 | 1003.9 |
| 20260903234326 | 15 | 221 | 4.8 | 16.1 | 0.20 | 2.54 | 2.54 | 90 | 1003.8 |
| 20260903233325 | 15 | 114 | 4.8 | 11.3 | 0.18 | 2.49 | 2.49 | 90 | 1003.9 |
| 20260903232825 | 15 | 71 | 6.4 | 16.1 | 0.13 | 2.49 | 2.49 | 90 | 1003.9 |
| 20260903232325 | 15 | 106 | 4.8 | 16.1 | 0.13 | 2.46 | 2.46 | 90 | 1004.0 |
| 20260903231825 | 15 | 119 | 3.2 | 16.1 | 0.15 | 2.44 | 2.44 | 90 | 1004.1 |
| 20260903231326 | 15 | 187 | 11.3 | 12.9 | 0.15 | 2.41 | 2.44 | 90 | 1004.1 |
| 20260903230825 | 15 | 154 | 6.4 | 12.9 | 0.15 | 2.41 | 2.41 | 90 | 1004.1 |
| 20260903230325 | 15 | 163 | 4.8 | 12.9 | 0.15 | 2.39 | 2.39 | 90 | 1004.2 |
| 20260903230035 | 15 | 170 | 1.6 | 16.1 | 0.13 | 2.36 | 2.39 | 90 | 1004.2 |
| 20260903225825 | 15 | 170 | 1.6 | 16.1 | 0.13 | 2.36 | 2.39 | 90 | 1004.2 |
| 20260903225325 | 15 | 100 | 1.6 | 16.1 | 0.13 | 2.36 | 2.36 | 90 | 1004.2 |
| 20260903224825 | 15 | 173 | 6.4 | 16.1 | 0.13 | 2.34 | 2.34 | 90 | 1004.2 |
| 20260903224326 | 15 | 135 | 3.2 | 11.3 | 0.13 | 2.34 | 2.34 | 90 | 1004.3 |
| 20260903223825 | 15 | 175 | 3.2 | 11.3 | 0.10 | 2.34 | 2.34 | 90 | 1004.2 |
| 20260903223325 | 15 | 107 | 4.8 | 11.3 | 0.10 | 2.31 | 2.34 | 90 | 1004.2 |
| 20260903222825 | 15 | 166 | 1.6 | 11.3 | 0.13 | 2.31 | 2.31 | 90 | 1004.2 |
| 20260903222325 | 15 | 82 | 4.8 | 11.3 | 0.13 | 2.31 | 2.31 | 90 | 1004.2 |
| 20260903221825 | 15 | 170 | 4.8 | 19.3 | 0.38 | 2.29 | 2.29 | 89 | 1004.3 |
| 20260903221326 | 15 | 102 | 3.2 | 19.3 | 0.38 | 2.26 | 2.26 | 89 | 1004.3 |
| 20260903220825 | 15 | 200 | 6.4 | 19.3 | 0.43 | 2.26 | 2.26 | 89 | 1004.2 |
| 20260903220325 | 15 | 176 | 8.0 | 16.1 | 0.43 | 2.24 | 2.24 | 89 | 1004.3 |
| 20260903215825 | 15 | 124 | 12.9 | 16.1 | 0.41 | 2.24 | 2.24 | 89 | 1004.2 |
| 20260903215325 | 15 | 138 | 4.8 | 16.1 | 0.41 | 2.21 | 2.21 | 89 | 1004.2 |
| 20260903214825 | 15 | 113 | 8.0 | 12.9 | 0.43 | 2.21 | 2.21 | 89 | 1004.2 |
| 20260903213825 | 15 | 113 | 3.2 | 9.7 | 0.43 | 2.21 | 2.21 | 89 | 1004.3 |
| 20260903213325 | 14 | 194 | 1.6 | 9.7 | 0.43 | 2.21 | 2.21 | 89 | 1004.2 |
| 20260903212825 | 15 | 74 | 3.2 | 9.7 | 0.41 | 2.21 | 2.21 | 88 | 1004.3 |
| 20260903212325 | 15 | 109 | 6.4 | 17.7 | 0.41 | 2.18 | 2.18 | 88 | 1004.4 |
| 20260903211825 | 15 | 186 | 6.4 | 17.7 | 0.10 | 2.08 | 2.11 | 88 | 1004.6 |
| 20260903211326 | 15 | 158 | 4.8 | 17.7 | 0.10 | 1.91 | 1.91 | 87 | 1004.7 |
| 20260903210825 | 15 | 105 | 4.8 | 17.7 | 0.03 | 1.83 | 1.83 | 87 | 1004.6 |
| 20260903205825 | 15 | 208 | 9.7 | 17.7 | 0.03 | 1.83 | 1.80 | 87 | 1004.4 |
| 20260903205325 | 15 | 175 | 6.4 | 12.9 | 0.03 | 1.83 | 1.80 | 88 | 1004.4 |
| 20260903204825 | 15 | 163 | 6.4 | 27.4 | 0.00 | 1.83 | 1.80 | 87 | 1004.4 |
| 20260903204327 | 15 | 197 | 8.0 | 27.4 | 0.00 | 1.83 | 1.78 | 87 | 1004.4 |
| 20260903203825 | 16 | 179 | 9.7 | 27.4 | 0.00 | 1.83 | 1.78 | 87 | 1004.4 |
| 20260903203325 | 16 | 197 | 11.3 | 25.7 | 0.00 | 1.83 | 1.78 | 87 | 1004.3 |
| 20260903202825 | 16 | 165 | 9.7 | 14.5 | 0.00 | 1.83 | 1.78 | 89 | 1004.2 |
| 20260903202325 | 16 | 123 | 3.2 | 25.7 | 0.00 | 1.83 | 1.78 | 89 | 1004.2 |
| 20260903201825 | 16 | 163 | 4.8 | 25.7 | 0.03 | 1.83 | 1.78 | 90 | 1004.3 |
| 20260903201326 | 16 | 173 | 4.8 | 25.7 | 0.03 | 1.83 | 1.78 | 90 | 1004.3 |
| 20260903200825 | 16 | 175 | 4.8 | 16.1 | 0.05 | 1.83 | 1.78 | 90 | 1004.4 |
| 20260903200325 | 16 | 72 | 3.2 | 14.5 | 0.05 | 1.83 | 1.78 | 91 | 1004.2 |
| 20260903195825 | 15 | 210 | 6.4 | 9.7 | 0.05 | 1.88 | 1.78 | 91 | 1004.3 |
| 20260903195325 | 15 | 120 | 3.2 | 9.7 | 0.05 | 1.88 | 1.78 | 91 | 1004.4 |
| 20260903194826 | 15 | 182 | 4.8 | 6.4 | 0.05 | 1.88 | 1.78 | 91 | 1004.4 |
| 20260903194326 | 15 | 133 | 1.6 | 12.9 | 0.05 | 1.88 | 1.78 | 91 | 1004.5 |
| 20260903193825 | 15 | 168 | 1.6 | 12.9 | 0.05 | 1.88 | 1.78 | 91 | 1004.6 |
| 20260903193325 | 15 | 137 | 4.8 | 12.9 | 0.05 | 1.88 | 1.78 | 91 | 1004.7 |
| 20260903192825 | 14 | 145 | 6.4 | 12.9 | 0.10 | 1.88 | 1.78 | 91 | 1004.8 |
| 20260903192325 | 14 | 127 | 3.2 | 12.9 | 0.10 | 1.88 | 1.78 | 90 | 1004.8 |
| 20260903191825 | 14 | 184 | 3.2 | 12.9 | 0.10 | 1.88 | 1.75 | 90 | 1004.8 |
| 20260903191326 | 14 | 158 | 3.2 | 11.3 | 0.10 | 1.88 | 1.75 | 90 | 1004.8 |
| 20260903190825 | 14 | 162 | 4.8 | 14.5 | 0.10 | 1.88 | 1.75 | 91 | 1004.8 |
| 20260903190325 | 14 | 163 | 3.2 | 14.5 | 0.10 | 1.88 | 1.73 | 91 | 1004.8 |
| 20260903185825 | 14 | 198 | 6.4 | 14.5 | 0.20 | 2.13 | 1.73 | 90 | 1004.8 |
| 20260903185325 | 14 | 205 | 6.4 | 12.9 | 0.20 | 2.13 | 1.73 | 90 | 1004.9 |
| 20260903184825 | 14 | 165 | 3.2 | 12.9 | 0.20 | 2.13 | 1.73 | 90 | 1004.9 |
| 20260903184326 | 14 | 245 | 6.4 | 12.9 | 0.20 | 2.13 | 1.73 | 90 | 1004.8 |
| 20260903183325 | 14 | 162 | 4.8 | 14.5 | 0.20 | 2.13 | 1.73 | 91 | 1004.9 |
| 20260903182825 | 14 | 196 | 1.6 | 14.5 | 0.18 | 2.13 | 1.70 | 90 | 1004.9 |
| 20260903182325 | 14 | 191 | 4.8 | 14.5 | 0.18 | 2.13 | 1.68 | 90 | 1004.9 |
| 20260903181825 | 14 | 149 | 4.8 | 8.0 | 0.18 | 2.13 | 1.68 | 90 | 1004.9 |
| 20260903181326 | 14 | 154 | 1.6 | 14.5 | 0.18 | 2.13 | 1.65 | 90 | 1004.9 |
| 20260903180825 | 14 | 175 | 4.8 | 14.5 | 0.15 | 2.13 | 1.65 | 90 | 1004.9 |
| 20260903180325 | 14 | 70 | 6.4 | 14.5 | 0.15 | 2.13 | 1.65 | 90 | 1004.9 |
| 20260903175825 | 14 | 198 | 4.8 | 16.1 | 0.10 | 2.13 | 1.60 | 90 | 1004.9 |
| 20260903175325 | 14 | 84 | 3.2 | 16.1 | 0.10 | 2.13 | 1.55 | 90 | 1004.9 |
| 20260903174825 | 14 | 149 | 8.0 | 16.1 | 0.18 | 2.13 | 1.52 | 90 | 1004.9 |
| 20260903174326 | 14 | 163 | 1.6 | 22.5 | 0.18 | 2.13 | 1.52 | 90 | 1004.9 |
| 20260903173826 | 14 | 47 | 6.4 | 22.5 | 0.28 | 2.13 | 1.52 | 90 | 1004.8 |
| 20260903173325 | 14 | 142 | 9.7 | 22.5 | 0.28 | 2.13 | 1.52 | 90 | 1004.9 |
| 20260903172825 | 14 | 182 | 8.0 | 20.9 | 0.25 | 2.13 | 1.50 | 90 | 1004.8 |
| 20260903172326 | 14 | 198 | 6.4 | 25.7 | 0.25 | 2.13 | 1.50 | 90 | 1004.8 |
| 20260903171825 | 14 | 165 | 12.9 | 25.7 | 0.23 | 2.13 | 1.47 | 90 | 1004.6 |
| 20260903171326 | 15 | 182 | 9.7 | 25.7 | 0.23 | 2.13 | 1.47 | 90 | 1004.6 |
| 20260903170825 | 14 | 193 | 11.3 | 24.1 | 0.23 | 2.13 | 1.47 | 91 | 1004.6 |
| 20260903170325 | 14 | 217 | 9.7 | 35.4 | 0.23 | 2.13 | 1.47 | 91 | 1004.7 |
| 20260903165825 | 14 | 191 | 14.5 | 35.4 | 0.18 | 2.11 | 1.47 | 90 | 1004.7 |
| 20260903165325 | 14 | 207 | 14.5 | 35.4 | 0.18 | 2.11 | 1.45 | 90 | 1004.7 |
| 20260903164825 | 14 | 197 | 14.5 | 27.4 | 0.10 | 2.11 | 1.42 | 90 | 1004.7 |
| 20260903164326 | 15 | 190 | 12.9 | 33.8 | 0.10 | 2.11 | 1.37 | 90 | 1004.7 |
| 20260903163825 | 15 | 205 | 12.9 | 33.8 | 0.00 | 2.11 | 1.32 | 90 | 1004.7 |
| 20260903163325 | 15 | 182 | 19.3 | 33.8 | 0.00 | 2.11 | 1.24 | 90 | 1004.6 |
| 20260903162826 | 15 | 133 | 3.2 | 12.9 | 0.18 | 2.11 | 1.24 | 90 | 1004.4 |
| 20260903162329 | 15 | 140 | 6.4 | 12.9 | 0.18 | 2.11 | 1.24 | 90 | 1004.4 |
| 20260903161825 | 15 | 222 | 8.0 | 27.4 | 0.18 | 2.11 | 1.24 | 90 | 1004.4 |
| 20260903161326 | 15 | 204 | 4.8 | 27.4 | 0.18 | 2.11 | 1.24 | 90 | 1004.6 |
| 20260903160827 | 15 | 190 | 6.4 | 27.4 | 0.18 | 2.11 | 1.24 | 90 | 1004.6 |
| 20260903160325 | 15 | 166 | 8.0 | 20.9 | 0.18 | 2.11 | 1.24 | 90 | 1004.6 |
| 20260903155826 | 15 | 96 | 3.2 | 17.7 | 0.18 | 2.08 | 1.24 | 90 | 1004.5 |
| 20260903155325 | 15 | 156 | 6.4 | 16.1 | 0.18 | 2.08 | 1.24 | 90 | 1004.4 |
| 20260903154825 | 14 | 166 | 4.8 | 20.9 | 0.18 | 2.08 | 1.24 | 90 | 1004.4 |
| 20260903154326 | 14 | 155 | 6.4 | 20.9 | 0.18 | 2.08 | 1.24 | 90 | 1004.4 |
| 20260903153825 | 14 | 172 | 8.0 | 20.9 | 0.25 | 2.08 | 1.24 | 90 | 1004.4 |
| 20260903153325 | 14 | 135 | 12.9 | 17.7 | 0.25 | 2.08 | 1.24 | 90 | 1004.4 |
| 20260903152826 | 14 | 165 | 9.7 | 14.5 | 0.13 | 2.08 | 1.19 | 90 | 1004.5 |
| 20260903152325 | 14 | 110 | 4.8 | 11.3 | 0.13 | 2.08 | 1.07 | 90 | 1004.4 |
| 20260903151825 | 14 | 212 | 6.4 | 16.1 | 0.18 | 2.08 | 1.07 | 90 | 1004.4 |
| 20260903151326 | 14 | 156 | 8.0 | 16.1 | 0.18 | 2.08 | 1.07 | 90 | 1004.5 |
| 20260903150825 | 14 | 84 | 6.4 | 16.1 | 0.23 | 2.08 | 1.07 | 90 | 1004.4 |
| 20260903150325 | 13 | 84 | 6.4 | 14.5 | 0.23 | 2.08 | 1.07 | 90 | 1004.3 |
| 20260903145826 | 13 | 85 | 4.8 | 12.9 | 0.28 | 2.03 | 1.07 | 90 | 1004.3 |
| 20260903145325 | 13 | 77 | 6.4 | 12.9 | 0.28 | 2.03 | 1.07 | 90 | 1004.2 |
| 20260903144825 | 13 | 93 | 4.8 | 9.7 | 0.36 | 2.03 | 1.07 | 90 | 1004.2 |
| 20260903144326 | 13 | 142 | 1.6 | 20.9 | 0.36 | 2.03 | 1.07 | 90 | 1004.1 |
| 20260903143825 | 13 | 219 | 4.8 | 20.9 | 0.28 | 2.03 | 1.07 | 90 | 1004.2 |
| 20260903143325 | 13 | 232 | 6.4 | 20.9 | 0.28 | 2.03 | 1.07 | 90 | 1004.5 |
| 20260903142825 | 13 | 204 | 4.8 | 22.5 | 0.25 | 2.03 | 0.97 | 90 | 1004.5 |
| 20260903142325 | 13 | 208 | 8.0 | 22.5 | 0.25 | 2.03 | 0.94 | 90 | 1004.3 |
| 20260903141825 | 13 | 228 | 4.8 | 22.5 | 0.25 | 2.03 | 0.94 | 90 | 1004.3 |
| 20260903141326 | 13 | 214 | 9.7 | 14.5 | 0.25 | 2.03 | 0.89 | 90 | 1004.4 |
| 20260903140825 | 13 | 169 | 6.4 | 25.7 | 0.23 | 2.03 | 0.86 | 90 | 1004.5 |
| 20260903135826 | 13 | 173 | 3.2 | 25.7 | 0.18 | 1.83 | 0.84 | 90 | 1004.4 |
| 20260903135325 | 13 | 212 | 8.0 | 19.3 | 0.18 | 1.83 | 0.81 | 90 | 1004.4 |
| 20260903134825 | 13 | 204 | 8.0 | 19.3 | 0.18 | 1.83 | 0.79 | 89 | 1004.4 |
| 20260903134326 | 13 | 172 | 6.4 | 19.3 | 0.18 | 1.83 | 0.74 | 89 | 1004.3 |
| 20260903133825 | 13 | 124 | 6.4 | 16.1 | 0.18 | 1.83 | 0.71 | 89 | 1004.2 |
| 20260903133325 | 13 | 70 | 4.8 | 16.1 | 0.18 | 1.83 | 0.71 | 89 | 1004.2 |
| 20260903132826 | 13 | 140 | 4.8 | 16.1 | 0.15 | 1.83 | 0.69 | 89 | 1004.1 |
| 20260903132325 | 13 | 159 | 6.4 | 27.4 | 0.15 | 1.83 | 0.69 | 89 | 1004.2 |
| 20260903131826 | 13 | 197 | 6.4 | 27.4 | 0.10 | 1.83 | 0.69 | 89 | 1004.1 |
| 20260903131326 | 13 | 172 | 9.7 | 27.4 | 0.10 | 1.83 | 0.66 | 89 | 1004.2 |
| 20260903130825 | 13 | 177 | 11.3 | 24.1 | 0.08 | 1.83 | 0.61 | 89 | 1004.3 |
| 20260903125826 | 13 | 191 | 14.5 | 33.8 | 0.08 | 1.75 | 0.61 | 89 | 1004.4 |
| 20260903125325 | 14 | 201 | 11.3 | 33.8 | 0.08 | 1.75 | 0.61 | 89 | 1004.3 |
| 20260903124825 | 14 | 190 | 6.4 | 24.1 | 0.00 | 1.75 | 0.58 | 89 | 1004.2 |
| 20260903124327 | 14 | 180 | 8.0 | 20.9 | 0.00 | 1.75 | 0.58 | 89 | 1004.4 |
| 20260903123825 | 14 | 179 | 9.7 | 20.9 | 0.00 | 1.75 | 0.53 | 89 | 1004.2 |
| 20260903123325 | 14 | 75 | 8.0 | 17.7 | 0.00 | 1.75 | 0.53 | 89 | 1004.2 |
| 20260903122326 | 14 | 168 | 8.0 | 20.9 | 0.00 | 1.75 | 0.53 | 89 | 1004.2 |
| 20260903121825 | 14 | 140 | 4.8 | 20.9 | 0.00 | 1.75 | 0.53 | 89 | 1004.3 |
| 20260903121326 | 14 | 196 | 4.8 | 20.9 | 0.00 | 1.75 | 0.53 | 89 | 1004.4 |
| 20260903120825 | 14 | 201 | 9.7 | 19.3 | 0.00 | 1.75 | 0.53 | 89 | 1004.4 |
| 20260903120325 | 14 | 161 | 9.7 | 17.7 | 0.00 | 1.75 | 0.53 | 89 | 1004.3 |
| 20260903115826 | 14 | 135 | 4.8 | 17.7 | 0.00 | 1.75 | 0.53 | 89 | 1004.4 |
| 20260903115326 | 14 | 124 | 6.4 | 22.5 | 0.00 | 1.75 | 0.53 | 89 | 1004.5 |
| 20260903114825 | 14 | 161 | 8.0 | 22.5 | 0.03 | 1.75 | 0.53 | 89 | 1004.5 |
| 20260903114326 | 14 | 130 | 11.3 | 22.5 | 0.03 | 1.75 | 0.53 | 89 | 1004.4 |
| 20260903113325 | 14 | 190 | 8.0 | 29.0 | 0.13 | 1.75 | 0.53 | 89 | 1004.7 |
| 20260903112826 | 14 | 180 | 8.0 | 29.0 | 0.18 | 1.75 | 0.53 | 89 | 1004.6 |
| 20260903112325 | 14 | 123 | 12.9 | 35.4 | 0.18 | 1.75 | 0.53 | 89 | 1004.7 |
| 20260903111825 | 14 | 175 | 8.0 | 35.4 | 0.23 | 1.75 | 0.53 | 89 | 1004.7 |
| 20260903111326 | 14 | 190 | 12.9 | 35.4 | 0.23 | 1.75 | 0.53 | 89 | 1004.8 |
| 20260903110825 | 14 | 184 | 14.5 | 29.0 | 0.33 | 1.75 | 0.53 | 89 | 1004.7 |
| 20260903110325 | 15 | 156 | 12.9 | 29.0 | 0.33 | 1.75 | 0.53 | 89 | 1004.7 |
| 20260903105826 | 14 | 184 | 9.7 | 29.0 | 0.51 | 1.42 | 0.53 | 89 | 1004.6 |
| 20260903105325 | 15 | 200 | 16.1 | 38.6 | 0.51 | 1.42 | 0.53 | 89 | 1004.7 |
| 20260903104825 | 15 | 148 | 14.5 | 38.6 | 0.48 | 1.42 | 0.53 | 89 | 1004.6 |
| 20260903104326 | 15 | 201 | 16.1 | 38.6 | 0.48 | 1.42 | 0.51 | 89 | 1004.7 |
| 20260903103829 | 15 | 205 | 11.3 | 35.4 | 0.41 | 1.42 | 0.48 | 88 | 1004.8 |
| 20260903103325 | 15 | 196 | 11.3 | 35.4 | 0.41 | 1.42 | 0.41 | 88 | 1004.7 |
| 20260903102826 | 15 | 154 | 9.7 | 35.4 | 0.36 | 1.42 | 0.41 | 88 | 1004.7 |
| 20260903102454 | 15 | 219 | 9.7 | 27.4 | 0.30 | 1.42 | 0.33 | 88 | 1004.8 |
| 20260903102325 | 15 | 246 | 17.7 | 32.2 | 0.36 | 1.42 | 0.38 | 88 | 1004.6 |
| 20260903101825 | 15 | 183 | 4.8 | 19.3 | 0.30 | 1.42 | 0.36 | 88 | 1004.7 |
| 20260903101326 | 15 | 219 | 9.7 | 27.4 | 0.30 | 1.42 | 0.33 | 88 | 1004.8 |
| 20260903100825 | 15 | 226 | 12.9 | 27.4 | 0.20 | 1.42 | 0.28 | 87 | 1004.8 |
| 20260903100325 | 15 | 135 | 6.4 | 27.4 | 0.20 | 1.42 | 0.23 | 87 | 1004.7 |
| 20260903095826 | 15 | 163 | 8.0 | 17.7 | 0.03 | 1.22 | 0.15 | 87 | 1004.6 |
| 20260903095325 | 15 | 191 | 9.7 | 19.3 | 0.03 | 1.22 | 0.03 | 87 | 1004.6 |
| 20260903094825 | 15 | 172 | 6.4 | 19.3 | 0.03 | 1.22 | 0.03 | 86 | 1004.6 |
| 20260903094326 | 15 | 196 | 11.3 | 19.3 | 0.03 | 1.22 | 0.03 | 86 | 1004.7 |
| 20260903093825 | 15 | 154 | 11.3 | 17.7 | 0.00 | 1.22 | 0.03 | 86 | 1004.8 |
| 20260903093325 | 15 | 187 | 8.0 | 17.7 | 0.00 | 1.22 | 0.00 | 86 | 1004.8 |
| 20260903092826 | 15 | 156 | 8.0 | 33.8 | 0.00 | 1.22 | 0.00 | 86 | 1004.8 |
| 20260903092325 | 15 | 217 | 4.8 | 33.8 | 0.00 | 1.22 | 0.00 | 86 | 1004.8 |
| 20260903091825 | 15 | 173 | 8.0 | 33.8 | 0.00 | 1.22 | 0.00 | 86 | 1004.8 |
| 20260903091326 | 15 | 179 | 9.7 | 29.0 | 0.00 | 1.22 | 0.00 | 86 | 1004.8 |
| 20260903090825 | 15 | 203 | 16.1 | 22.5 | 0.00 | 1.22 | 0.00 | 86 | 1004.8 |
| 20260903090326 | 15 | 147 | 11.3 | 22.5 | 0.00 | 1.22 | 0.00 | 86 | 1004.8 |
| 20260903085825 | 15 | 103 | 6.4 | 20.9 | 0.00 | 1.22 | 0.00 | 86 | 1004.8 |
| 20260903085325 | 15 | 200 | 11.3 | 20.9 | 0.00 | 1.22 | 0.00 | 86 | 1004.7 |
| 20260903084825 | 15 | 142 | 6.4 | 22.5 | 0.00 | 1.22 | 0.00 | 86 | 1004.7 |
| 20260903084326 | 15 | 196 | 4.8 | 22.5 | 0.00 | 1.22 | 0.00 | 86 | 1004.7 |
| 20260903083825 | 15 | 112 | 11.3 | 22.5 | 0.00 | 1.22 | 0.00 | 86 | 1004.6 |
| 20260903083325 | 15 | 179 | 11.3 | 16.1 | 0.00 | 1.22 | 0.00 | 87 | 1004.6 |
| 20260903082826 | 15 | 120 | 4.8 | 16.1 | 0.00 | 1.22 | 0.00 | 87 | 1004.6 |
| 20260903082325 | 15 | 172 | 8.0 | 22.5 | 0.00 | 1.22 | 0.00 | 87 | 1004.6 |
| 20260903081825 | 15 | 238 | 8.0 | 22.5 | 0.00 | 1.22 | 0.00 | 87 | 1004.7 |
| 20260903081326 | 15 | 184 | 6.4 | 22.5 | 0.00 | 1.22 | 0.00 | 87 | 1004.9 |
| 20260903080825 | 15 | 193 | 8.0 | 19.3 | 0.00 | 1.22 | 0.00 | 87 | 1004.9 |
| 20260903075826 | 15 | 156 | 6.4 | 19.3 | 0.00 | 1.22 | 0.00 | 87 | 1005.0 |
| 20260903075357 | 15 | 184 | 4.8 | 24.1 | 0.00 | 1.22 | 0.00 | 87 | 1005.0 |
| 20260903075326 | 15 | 184 | 4.8 | 24.1 | 0.00 | 1.22 | 0.00 | 87 | 1005.0 |
| 20260903074825 | 15 | 149 | 6.4 | 24.1 | 0.00 | 1.22 | 0.00 | 87 | 1005.0 |
| 20260903074326 | 15 | 166 | 6.4 | 24.1 | 0.00 | 1.22 | 0.00 | 87 | 1004.9 |
| 20260903073825 | 15 | 170 | 8.0 | 14.5 | 0.00 | 1.22 | 0.00 | 87 | 1004.9 |
| 20260903073325 | 15 | 103 | 8.0 | 14.5 | 0.00 | 1.22 | 0.00 | 87 | 1005.0 |
| 20260903073138 | 15 | 238 | 4.8 | 20.9 | 0.00 | 1.22 | 0.00 | 87 | 1005.0 |
| 20260903072826 | 15 | 238 | 4.8 | 20.9 | 0.00 | 1.22 | 0.00 | 87 | 1005.0 |
| 20260903072325 | 15 | 183 | 8.0 | 20.9 | 0.00 | 1.22 | 0.00 | 87 | 1005.0 |
| 20260903071825 | 15 | 91 | 6.4 | 20.9 | 0.00 | 1.22 | 0.00 | 87 | 1005.0 |
| 20260903071326 | 15 | 91 | 8.0 | 17.7 | 0.00 | 1.22 | 0.00 | 87 | 1004.9 |
| 20260903070825 | 15 | 183 | 1.6 | 17.7 | 0.00 | 1.22 | 0.00 | 87 | 1004.9 |
| 20260903070325 | 15 | 148 | 8.0 | 17.7 | 0.00 | 1.22 | 0.00 | 87 | 1004.9 |
| 20260903065826 | 15 | 173 | 8.0 | 27.4 | 0.00 | 1.22 | 0.00 | 87 | 1004.9 |
| 20260903065325 | 15 | 151 | 6.4 | 27.4 | 0.00 | 1.22 | 1.22 | 87 | 1004.8 |
| 20260903064825 | 15 | 155 | 4.8 | 27.4 | 0.00 | 1.22 | 1.22 | 87 | 1004.9 |
| 20260903063825 | 15 | 138 | 11.3 | 25.7 | 0.00 | 1.22 | 1.22 | 87 | 1004.8 |
| 20260903063325 | 15 | 168 | 6.4 | 25.7 | 0.00 | 1.22 | 1.22 | 87 | 1004.9 |
| 20260903062826 | 15 | 140 | 11.3 | 24.1 | 0.00 | 1.22 | 1.22 | 87 | 1004.9 |
| 20260903062325 | 15 | 103 | 11.3 | 19.3 | 0.00 | 1.22 | 1.22 | 87 | 1004.9 |
| 20260903061825 | 15 | 197 | 8.0 | 25.7 | 0.00 | 1.22 | 1.22 | 87 | 1005.0 |
| 20260903061326 | 15 | 130 | 11.3 | 25.7 | 0.00 | 1.22 | 1.22 | 87 | 1005.0 |
| 20260903060825 | 15 | 173 | 8.0 | 25.7 | 0.00 | 1.22 | 1.22 | 87 | 1005.1 |
| 20260903060325 | 15 | 183 | 9.7 | 19.3 | 0.00 | 1.22 | 1.22 | 87 | 1005.1 |
| 20260903055826 | 15 | 165 | 9.7 | 19.3 | 0.00 | 1.22 | 1.22 | 87 | 1005.1 |
| 20260903055325 | 15 | 141 | 3.2 | 16.1 | 0.00 | 1.22 | 1.22 | 87 | 1005.1 |
| 20260903054825 | 15 | 168 | 9.7 | 22.5 | 0.00 | 1.22 | 1.22 | 87 | 1005.1 |
| 20260903054326 | 15 | 194 | 11.3 | 22.5 | 0.00 | 1.22 | 1.22 | 87 | 1005.2 |
| 20260903053825 | 15 | 154 | 8.0 | 22.5 | 0.00 | 1.22 | 1.22 | 87 | 1005.3 |
| 20260903052826 | 15 | 126 | 4.8 | 27.4 | 0.00 | 1.22 | 1.22 | 87 | 1005.2 |
| 20260903052325 | 15 | 175 | 11.3 | 27.4 | 0.00 | 1.22 | 1.22 | 87 | 1005.2 |
| 20260903051825 | 15 | 176 | 3.2 | 27.4 | 0.00 | 1.22 | 1.22 | 87 | 1005.2 |
| 20260903051326 | 15 | 235 | 11.3 | 17.7 | 0.00 | 1.22 | 1.22 | 87 | 1005.1 |
| 20260903050825 | 15 | 204 | 8.0 | 19.3 | 0.00 | 1.22 | 1.22 | 87 | 1005.1 |
| 20260903050325 | 15 | 172 | 9.7 | 19.3 | 0.00 | 1.22 | 1.22 | 87 | 1005.1 |
| 20260903045826 | 15 | 168 | 6.4 | 19.3 | 0.00 | 1.22 | 1.22 | 87 | 1005.0 |
| 20260903045325 | 15 | 159 | 8.0 | 20.9 | 0.00 | 1.22 | 1.22 | 87 | 1005.0 |
| 20260903044825 | 15 | 127 | 9.7 | 20.9 | 0.00 | 1.22 | 1.22 | 87 | 1005.0 |
| 20260903044326 | 15 | 172 | 9.7 | 20.9 | 0.00 | 1.22 | 1.22 | 87 | 1005.1 |
| 20260903043825 | 15 | 148 | 6.4 | 17.7 | 0.00 | 1.22 | 1.22 | 87 | 1005.1 |
| 20260903042826 | 15 | 135 | 4.8 | 25.7 | 0.00 | 1.22 | 1.22 | 87 | 1005.0 |